Location: Bonny Doon Airfield
(37.0704°N, 122.1252°W)
Time: 08:58:01
(UTC-08:00)

Vanguard 1 Rocket - Pass Details

Date: 24 October 2017
Orbit: 655 x 4222 km, 34.3° (Epoch: 22 November)

Event Time Altitude Azimuth Distance (km) Brightness Sun altitude
Rises 08:37:10 0° 260° (W) 5,019 10.7 12.6°
Reaches altitude 10° 08:41:12 10° 258° (WSW) 3,507 10.0 13.4°
Maximum altitude 08:49:02 68° 177° (S) 974 8.0 14.7°
Drops below altitude 10° 08:53:50 10° 95° (E) 2,198 10.9 15.6°
Sets 08:55:51 0° 93° (E) 3,017 11.3 15.9°
